Location: Brede
(50.9167°N, 0.6000°E)
Time: 16:32:45
(UTC+00:00)

IRS-1D - Pass Details

Date: 08 August 2020
Orbit: 741 x 816 km, 98.6° (Epoch: 23 September)

Event Time Altitude Azimuth Distance (km) Brightness Sun altitude
Rises 01:48:13 0° 19° (NNE) 3,216 8.3 -19.2°
Reaches altitude 10° 01:50:36 10° 26° (NNE) 2,295 7.2 -19.0°
Maximum altitude 01:55:27 45° 99° (E) 1,040 4.3 -18.7°
Enters shadow 01:58:32 21° 162° (SSE) 1,675 4.9 -18.4°
